IRIDIUM 33 DEB, 34521

Orbit data source: Space-Track

IRIDIUM 33 DEB, 34521 is space debris in LEO originally from a launch on Sun, 14 Sep 1997 UTC launched from the Tyuratam Missile And Space Complex (TTMTR). The debris from Iridium 33, an American commercial communications satellite, has been tracked extensively since its accidental collision with the defunct Russian satellite Cosmos 2251 in 2009. This event, occurring at high speed in low Earth orbit (LEO), generated thousands of pieces of space debris, significantly increasing the risk of further collisions. The Iridium 33 debris cloud has impacted space traffic management and orbital debris mitigation strategies, making it a subject of ongoing study in space situational awareness.

Loading next visibility...
Identifier
34521, 1997-051HN
Orbit
LEO
Country
Flag of USUS
Related business
Manufacturer
Unknown
Mission
Spacecraft
Bus & Motor
Unknown
Mass
Unknown
Launch date (UTC)
1997-09-14 (28 years ago)
Launch vehicle
Unknown
Launch site
Tyuratam Missile And Space Complex (TTMTR)
Object type
Payload
Rocket body
Debris
Shape & HBR
Unknown shape, 0.1 m
Radar Cross Section
Small (<0.1 m²)

Expand to show TLE details & history
Last TLE update: 18 hours ago

TLE from 18 hours ago
0 IRIDIUM 33 DEB
1 34521U 97051HN  26037.36319022  .00010375  00000-0  19671-2 0  9993
2 34521  86.3813   6.0416 0006688  72.4265 287.7678 14.64166957892864
Epoch: 2026-02-06T08:42Z
TLE epoch observation values (Epoch: 2026-02-06T08:42:59.635Z)
Latitude
0.00005°
Longitude
98.79098°
Altitude
681.406 km
Speed
7.517 km/s
True Right ascension
00h 24m 09s
True Declination
0° 00' 00"
Sunlit
Object was in daylight at epoch
Visualization orbit readout
Latitude
Unknown
Longitude
Unknown
Altitude
Unknown
Speed
Unknown
Apparent Right ascension
Unknown
Apparent Declination
Unknown
Sunlit
N/A
Visualization observer readout
Local Sidereal Time
04:57:08
Azimuth
Unknown
Elevation
Unknown
Doppler factor
Unknown
Orbital elements
Apogee altitude
681.392 km
Perigee altitude
671.956 km
Semi-major axis
7,054.811 km
Eccentricity
0.00067
Inclination
86.3813°
RAAN
6.0416°
Arg. of periapsis
72.4265°
True anomaly
287.6948°
Mean anomaly
287.7678°
Eccentric anomaly
287.7313°
Mean motion
3.66282 °/min
Orbital period
98.29 mins
BSTAR
0.0019671
Loading maneuver chart data...
Computing Atmospheric mass density...

Documentation

Showing up to 5 results
|